| time (UTC) | temp F | wind direction | speed knots | gust knots | rain 1hr in | rain 24hr in | rain mn in | humidity % | barometer mb |
| 20260902044012 | 52 | 201 | 0.9 | 0.9 | 0.00 | 0.04 | 0.04 | 75 | 1030.8 |
| 20260902043507 | 53 | 205 | 0.0 | 0.0 | 0.00 | 0.04 | 0.04 | 75 | 1030.5 |
| 20260902043006 | 53 | 201 | 0.0 | 0.0 | 0.00 | 0.04 | 0.04 | 75 | 1030.5 |
| 20260902042501 | 53 | 212 | 0.0 | 0.0 | 0.00 | 0.04 | 0.04 | 75 | 1030.8 |
| 20260902041956 | 53 | 184 | 0.9 | 0.9 | 0.00 | 0.04 | 0.04 | 74 | 1030.8 |
| 20260902041456 | 53 | 214 | 0.0 | 0.0 | 0.00 | 0.04 | 0.04 | 74 | 1030.8 |
| 20260902040951 | 54 | 195 | 0.9 | 0.9 | 0.00 | 0.04 | 0.04 | 73 | 1030.8 |
| 20260902040450 | 54 | 212 | 0.0 | 0.0 | 0.00 | 0.04 | 0.04 | 73 | 1030.5 |
| 20260902035944 | 54 | 204 | 0.9 | 0.9 | 0.00 | 0.04 | 0.04 | 73 | 1030.7 |
| 20260902035439 | 54 | 182 | 0.9 | 0.9 | 0.00 | 0.04 | 0.04 | 73 | 1030.5 |
| 20260902034939 | 54 | 187 | 0.9 | 0.9 | 0.00 | 0.04 | 0.04 | 74 | 1030.5 |
| 20260902034433 | 54 | 187 | 0.9 | 0.9 | 0.00 | 0.04 | 0.04 | 73 | 1030.4 |
| 20260902033933 | 54 | 197 | 0.9 | 0.9 | 0.00 | 0.04 | 0.04 | 72 | 1030.7 |
| 20260902033432 | 55 | 178 | 0.9 | 0.9 | 0.00 | 0.04 | 0.04 | 72 | 1030.7 |
| 20260902032931 | 55 | 204 | 0.0 | 0.9 | 0.00 | 0.04 | 0.04 | 72 | 1030.8 |
| 20260902032426 | 55 | 223 | 0.9 | 0.9 | 0.00 | 0.04 | 0.04 | 71 | 1030.7 |
| 20260902031921 | 55 | 214 | 0.0 | 0.0 | 0.00 | 0.04 | 0.04 | 71 | 1030.8 |
| 20260902031416 | 55 | 213 | 0.0 | 0.0 | 0.00 | 0.04 | 0.04 | 71 | 1030.7 |
| 20260902030912 | 56 | 219 | 0.0 | 0.0 | 0.00 | 0.04 | 0.04 | 71 | 1030.3 |
| 20260902030407 | 56 | 195 | 0.0 | 0.0 | 0.00 | 0.04 | 0.04 | 70 | 1030.3 |
| 20260902025905 | 56 | 192 | 0.0 | 0.9 | 0.00 | 0.04 | 0.04 | 70 | 1030.4 |
| 20260902025356 | 57 | 219 | 0.0 | 0.0 | 0.00 | 0.04 | 0.04 | 68 | 1030.4 |
| 20260902024856 | 57 | 203 | 0.0 | 0.0 | 0.00 | 0.04 | 0.04 | 68 | 1030.0 |
| 20260902024351 | 58 | 206 | 0.0 | 0.0 | 0.00 | 0.04 | 0.04 | 67 | 1030.3 |
| 20260902023846 | 58 | 198 | 0.9 | 0.9 | 0.00 | 0.04 | 0.04 | 67 | 1030.4 |
| 20260902023336 | 58 | 219 | 0.0 | 0.0 | 0.00 | 0.04 | 0.04 | 66 | 1029.9 |
| 20260902022835 | 59 | 198 | 0.0 | 0.0 | 0.00 | 0.04 | 0.04 | 65 | 1029.9 |
| 20260902022331 | 59 | 214 | 0.0 | 0.0 | 0.00 | 0.04 | 0.04 | 64 | 1030.0 |
| 20260902021827 | 60 | 194 | 0.9 | 0.9 | 0.00 | 0.04 | 0.04 | 65 | 1029.8 |
| 20260902021327 | 61 | 222 | 0.0 | 0.0 | 0.00 | 0.04 | 0.04 | 63 | 1029.8 |
| 20260902020823 | 61 | 222 | 0.0 | 0.9 | 0.00 | 0.04 | 0.04 | 61 | 1029.5 |
| 20260902020319 | 61 | 220 | 0.0 | 0.0 | 0.00 | 0.04 | 0.04 | 61 | 1029.8 |
| 20260902015814 | 61 | 212 | 0.0 | 0.9 | 0.00 | 0.04 | 0.04 | 62 | 1029.7 |
| 20260902015310 | 61 | 219 | 0.0 | 0.0 | 0.00 | 0.04 | 0.04 | 62 | 1029.8 |
| 20260902014805 | 62 | 206 | 0.0 | 0.0 | 0.00 | 0.04 | 0.04 | 61 | 1029.7 |
| 20260902014302 | 61 | 195 | 0.9 | 0.9 | 0.00 | 0.04 | 0.04 | 61 | 1029.7 |
| 20260902013800 | 61 | 193 | 0.9 | 0.9 | 0.00 | 0.04 | 0.04 | 62 | 1029.5 |
| 20260902013256 | 61 | 212 | 0.0 | 0.0 | 0.00 | 0.04 | 0.04 | 62 | 1029.7 |
| 20260902012751 | 62 | 219 | 0.0 | 0.0 | 0.00 | 0.04 | 0.04 | 62 | 1029.4 |
| 20260902012247 | 62 | 212 | 0.0 | 0.0 | 0.00 | 0.04 | 0.04 | 62 | 1029.5 |
| 20260902011743 | 63 | 214 | 0.0 | 0.0 | 0.00 | 0.04 | 0.04 | 60 | 1029.7 |
| 20260902011242 | 64 | 224 | 0.0 | 0.0 | 0.00 | 0.04 | 0.04 | 60 | 1029.8 |
| 20260902010741 | 65 | 222 | 0.0 | 0.0 | 0.00 | 0.04 | 0.04 | 59 | 1029.5 |
| 20260902010237 | 66 | 217 | 0.0 | 0.0 | 0.00 | 0.04 | 0.04 | 57 | 1029.5 |
| 20260902005736 | 67 | 219 | 0.0 | 0.0 | 0.00 | 0.04 | 0.04 | 56 | 1029.4 |
| 20260902005232 | 68 | 219 | 0.0 | 0.0 | 0.00 | 0.04 | 0.04 | 55 | 1029.5 |
| 20260902004731 | 69 | 221 | 0.0 | 0.0 | 0.00 | 0.04 | 0.04 | 51 | 1029.7 |
| 20260902004226 | 70 | 220 | 0.0 | 0.0 | 0.00 | 0.04 | 0.04 | 47 | 1029.3 |
| 20260902003721 | 69 | 207 | 0.0 | 0.9 | 0.00 | 0.04 | 0.04 | 48 | 1029.3 |
| 20260902003217 | 69 | 203 | 0.0 | 0.0 | 0.00 | 0.04 | 0.04 | 49 | 1029.3 |
| 20260902002713 | 69 | 214 | 0.0 | 0.0 | 0.00 | 0.04 | 0.04 | 48 | 1029.4 |
| 20260902002212 | 69 | 214 | 0.0 | 0.0 | 0.00 | 0.04 | 0.04 | 47 | 1029.3 |
| 20260902001708 | 70 | 209 | 0.0 | 0.9 | 0.00 | 0.04 | 0.04 | 47 | 1029.3 |
| 20260902001207 | 71 | 222 | 0.0 | 0.0 | 0.00 | 0.04 | 0.04 | 45 | 1029.4 |
| 20260902000703 | 71 | 6 | 1.7 | 1.7 | 0.00 | 0.04 | 0.04 | 45 | 1029.3 |
| 20260902000158 | 72 | 226 | 1.7 | 1.7 | 0.00 | 0.04 | 0.04 | 46 | 1029.4 |
| 20260901235657 | 72 | 291 | 1.7 | 1.7 | 0.00 | 0.04 | 0.04 | 44 | 1029.3 |
| 20260901235152 | 72 | 214 | 0.0 | 0.0 | 0.00 | 0.04 | 0.04 | 46 | 1029.3 |
| 20260901234651 | 72 | 216 | 0.0 | 0.0 | 0.00 | 0.04 | 0.04 | 45 | 1029.1 |
| 20260901234147 | 72 | 145 | 2.6 | 2.6 | 0.00 | 0.04 | 0.04 | 45 | 1029.5 |
| 20260901233641 | 73 | 305 | 0.9 | 1.7 | 0.00 | 0.04 | 0.04 | 44 | 1029.0 |
| 20260901233137 | 73 | 233 | 1.7 | 2.6 | 0.00 | 0.04 | 0.04 | 43 | 1029.3 |
| 20260901232632 | 74 | 240 | 2.6 | 2.6 | 0.00 | 0.04 | 0.04 | 44 | 1029.1 |
| 20260901232127 | 75 | 257 | 3.5 | 4.3 | 0.00 | 0.04 | 0.04 | 42 | 1029.1 |
| 20260901231624 | 74 | 249 | 1.7 | 1.7 | 0.00 | 0.04 | 0.04 | 43 | 1029.3 |
| 20260901231120 | 72 | 238 | 0.0 | 0.0 | 0.00 | 0.04 | 0.04 | 43 | 1029.3 |
| 20260901230616 | 72 | 183 | 0.0 | 0.0 | 0.00 | 0.04 | 0.04 | 43 | 1029.4 |
| 20260901230115 | 72 | 229 | 1.7 | 1.7 | 0.00 | 0.04 | 0.04 | 43 | 1029.3 |
| 20260901225610 | 72 | 225 | 1.7 | 1.7 | 0.00 | 0.04 | 0.04 | 43 | 1029.3 |
| 20260901225110 | 73 | 221 | 0.9 | 0.9 | 0.00 | 0.04 | 0.04 | 43 | 1029.3 |
| 20260901224607 | 73 | 172 | 1.7 | 1.7 | 0.00 | 0.04 | 0.04 | 40 | 1029.0 |
| 20260901224103 | 73 | 347 | 0.0 | 0.0 | 0.00 | 0.04 | 0.04 | 42 | 1029.1 |
| 20260901223557 | 75 | 223 | 0.9 | 1.7 | 0.00 | 0.04 | 0.04 | 43 | 1029.3 |
| 20260901223053 | 77 | 136 | 1.7 | 2.6 | 0.00 | 0.04 | 0.04 | 40 | 1029.3 |
| 20260901222549 | 75 | 212 | 0.9 | 0.9 | 0.00 | 0.04 | 0.04 | 42 | 1029.4 |
| 20260901222045 | 76 | 45 | 2.6 | 2.6 | 0.00 | 0.04 | 0.04 | 41 | 1029.3 |
| 20260901221541 | 74 | 28 | 0.9 | 1.7 | 0.00 | 0.04 | 0.04 | 41 | 1029.5 |
| 20260901221036 | 72 | 250 | 1.7 | 1.7 | 0.00 | 0.04 | 0.04 | 42 | 1029.5 |
| 20260901220535 | 71 | 223 | 0.9 | 0.9 | 0.00 | 0.04 | 0.04 | 44 | 1029.7 |
| 20260901220034 | 71 | 18 | 1.7 | 2.6 | 0.00 | 0.04 | 0.04 | 44 | 1029.5 |
| 20260901215533 | 72 | 347 | 4.3 | 5.2 | 0.00 | 0.04 | 0.04 | 43 | 1029.8 |
| 20260901215032 | 72 | 157 | 0.9 | 1.7 | 0.00 | 0.04 | 0.04 | 44 | 1029.5 |
| 20260901214531 | 71 | 2 | 2.6 | 2.6 | 0.00 | 0.04 | 0.04 | 44 | 1029.8 |
| 20260901214026 | 72 | 240 | 0.9 | 0.9 | 0.00 | 0.04 | 0.04 | 43 | 1029.5 |
| 20260901213520 | 73 | 23 | 6.1 | 7.0 | 0.00 | 0.04 | 0.04 | 43 | 1029.7 |
| 20260901213020 | 72 | 28 | 4.3 | 5.2 | 0.00 | 0.04 | 0.04 | 44 | 1029.8 |
| 20260901212514 | 72 | 29 | 2.6 | 2.6 | 0.00 | 0.04 | 0.04 | 44 | 1029.8 |
| 20260901212011 | 72 | 359 | 2.6 | 2.6 | 0.00 | 0.04 | 0.04 | 43 | 1029.8 |
| 20260901211506 | 73 | 48 | 2.6 | 4.3 | 0.00 | 0.04 | 0.04 | 43 | 1029.4 |
| 20260901211002 | 74 | 214 | 0.9 | 1.7 | 0.00 | 0.04 | 0.04 | 43 | 1029.7 |
| 20260901210457 | 72 | 192 | 2.6 | 4.3 | 0.00 | 0.04 | 0.04 | 45 | 1029.8 |
| 20260901205953 | 73 | 339 | 4.3 | 5.2 | 0.00 | 0.04 | 0.04 | 44 | 1029.5 |
| 20260901205449 | 73 | 320 | 2.6 | 2.6 | 0.00 | 0.04 | 0.04 | 44 | 1029.7 |
| 20260901204943 | 73 | 247 | 2.6 | 2.6 | 0.00 | 0.04 | 0.04 | 44 | 1029.7 |
| 20260901204440 | 74 | 302 | 3.5 | 5.2 | 0.00 | 0.04 | 0.04 | 43 | 1029.5 |
| 20260901203939 | 73 | 241 | 1.7 | 2.6 | 0.00 | 0.04 | 0.04 | 42 | 1029.7 |
| 20260901203434 | 74 | 58 | 5.2 | 6.1 | 0.00 | 0.04 | 0.04 | 42 | 1029.5 |
| 20260901202929 | 73 | 344 | 1.7 | 1.7 | 0.00 | 0.04 | 0.04 | 43 | 1029.8 |
| 20260901202430 | 73 | 11 | 2.6 | 4.3 | 0.00 | 0.04 | 0.04 | 43 | 1029.7 |
| 20260901201926 | 73 | 4 | 3.5 | 5.2 | 0.00 | 0.04 | 0.04 | 43 | 1029.7 |
| 20260901201426 | 73 | 153 | 0.0 | 0.9 | 0.00 | 0.04 | 0.04 | 43 | 1030.0 |
| 20260901200920 | 73 | 245 | 0.9 | 1.7 | 0.00 | 0.04 | 0.04 | 40 | 1029.9 |
| 20260901200415 | 72 | 74 | 2.6 | 5.2 | 0.00 | 0.04 | 0.04 | 40 | 1029.8 |
| 20260901195914 | 73 | 32 | 0.9 | 1.7 | 0.00 | 0.04 | 0.04 | 42 | 1029.7 |
| 20260901195413 | 73 | 171 | 1.7 | 2.6 | 0.00 | 0.04 | 0.04 | 43 | 1030.0 |
| 20260901194908 | 72 | 190 | 0.0 | 0.9 | 0.00 | 0.04 | 0.04 | 43 | 1029.8 |
| 20260901194402 | 73 | 287 | 4.3 | 6.1 | 0.00 | 0.04 | 0.04 | 43 | 1030.0 |
| 20260901193858 | 74 | 331 | 1.7 | 1.7 | 0.00 | 0.04 | 0.04 | 37 | 1029.9 |
| 20260901193352 | 73 | 216 | 0.9 | 0.9 | 0.00 | 0.04 | 0.04 | 36 | 1029.9 |
| 20260901192852 | 73 | 52 | 0.0 | 0.9 | 0.00 | 0.04 | 0.04 | 39 | 1029.9 |
| 20260901192348 | 73 | 215 | 2.6 | 2.6 | 0.00 | 0.04 | 0.04 | 36 | 1030.2 |
| 20260901191844 | 73 | 220 | 0.9 | 1.7 | 0.00 | 0.04 | 0.04 | 39 | 1029.9 |
| 20260901191339 | 73 | 317 | 2.6 | 2.6 | 0.00 | 0.04 | 0.04 | 39 | 1029.9 |
| 20260901190835 | 73 | 190 | 0.9 | 0.9 | 0.00 | 0.04 | 0.04 | 39 | 1030.2 |
| 20260901190335 | 73 | 276 | 3.5 | 4.3 | 0.00 | 0.04 | 0.04 | 39 | 1030.2 |
| 20260901185833 | 73 | 130 | 2.6 | 4.3 | 0.00 | 0.04 | 0.04 | 38 | 1030.2 |
| 20260901185332 | 73 | 221 | 0.0 | 0.9 | 0.00 | 0.04 | 0.04 | 40 | 1030.0 |
| 20260901184828 | 76 | 264 | 2.6 | 2.6 | 0.00 | 0.04 | 0.04 | 37 | 1030.3 |
| 20260901184323 | 74 | 228 | 0.0 | 0.0 | 0.00 | 0.04 | 0.04 | 36 | 1030.5 |
| 20260901183819 | 72 | 210 | 4.3 | 5.2 | 0.00 | 0.04 | 0.04 | 38 | 1030.3 |
| 20260901183318 | 73 | 250 | 0.9 | 1.7 | 0.00 | 0.04 | 0.04 | 36 | 1030.5 |
| 20260901182815 | 73 | 272 | 5.2 | 6.1 | 0.00 | 0.04 | 0.04 | 39 | 1030.7 |
| 20260901182314 | 74 | 184 | 1.7 | 2.6 | 0.00 | 0.04 | 0.04 | 37 | 1030.8 |
| 20260901181809 | 74 | 103 | 0.0 | 0.0 | 0.00 | 0.04 | 0.04 | 36 | 1030.3 |
| 20260901181303 | 75 | 163 | 3.5 | 5.2 | 0.00 | 0.04 | 0.04 | 36 | 1030.4 |
| 20260901180757 | 74 | 203 | 0.9 | 1.7 | 0.00 | 0.04 | 0.04 | 38 | 1030.8 |
| 20260901180256 | 74 | 214 | 1.7 | 1.7 | 0.00 | 0.04 | 0.04 | 42 | 1030.8 |
| 20260901175755 | 73 | 236 | 0.9 | 1.7 | 0.00 | 0.04 | 0.04 | 38 | 1030.7 |
| 20260901175250 | 72 | 225 | 0.9 | 1.7 | 0.00 | 0.04 | 0.04 | 41 | 1030.9 |
| 20260901174745 | 71 | 191 | 0.9 | 0.9 | 0.00 | 0.04 | 0.04 | 41 | 1030.9 |
| 20260901174241 | 72 | 180 | 1.7 | 2.6 | 0.00 | 0.04 | 0.04 | 42 | 1031.0 |
| 20260901173737 | 69 | 93 | 2.6 | 4.3 | 0.00 | 0.04 | 0.04 | 41 | 1031.2 |
| 20260901173231 | 70 | 213 | 0.9 | 0.9 | 0.00 | 0.04 | 0.04 | 41 | 1031.2 |
| 20260901172728 | 71 | 248 | 0.9 | 1.7 | 0.00 | 0.04 | 0.04 | 42 | 1030.9 |
| 20260901172226 | 70 | 177 | 0.0 | 0.0 | 0.00 | 0.04 | 0.04 | 42 | 1031.2 |
| 20260901171725 | 69 | 210 | 1.7 | 2.6 | 0.00 | 0.04 | 0.04 | 47 | 1031.2 |
| 20260901171224 | 69 | 211 | 0.9 | 1.7 | 0.00 | 0.04 | 0.04 | 45 | 1031.2 |
| 20260901170723 | 69 | 227 | 2.6 | 2.6 | 0.00 | 0.04 | 0.04 | 47 | 1031.3 |
| 20260901170218 | 69 | 179 | 0.9 | 1.7 | 0.00 | 0.04 | 0.04 | 43 | 1031.0 |
| 20260901165717 | 70 | 213 | 0.0 | 0.9 | 0.00 | 0.04 | 0.04 | 49 | 1031.3 |
| 20260901165212 | 71 | 141 | 0.9 | 0.9 | 0.00 | 0.04 | 0.04 | 45 | 1031.0 |
| 20260901164708 | 71 | 208 | 0.0 | 0.0 | 0.00 | 0.04 | 0.04 | 44 | 1031.3 |
| 20260901164203 | 71 | 216 | 1.7 | 1.7 | 0.00 | 0.04 | 0.04 | 45 | 1031.3 |
| 20260901163658 | 70 | 216 | 1.7 | 2.6 | 0.00 | 0.04 | 0.04 | 45 | 1031.5 |
| 20260901163157 | 70 | 227 | 2.6 | 2.6 | 0.00 | 0.04 | 0.04 | 45 | 1031.0 |
| 20260901162653 | 70 | 191 | 4.3 | 6.1 | 0.00 | 0.04 | 0.04 | 44 | 1031.3 |
| 20260901162152 | 69 | 178 | 3.5 | 5.2 | 0.00 | 0.04 | 0.04 | 46 | 1031.0 |
| 20260901161651 | 68 | 200 | 0.9 | 1.7 | 0.00 | 0.04 | 0.04 | 50 | 1031.2 |
| 20260901161151 | 69 | 153 | 2.6 | 4.3 | 0.00 | 0.04 | 0.04 | 44 | 1031.4 |
| 20260901160648 | 69 | 186 | 2.6 | 2.6 | 0.00 | 0.04 | 0.04 | 45 | 1031.5 |
| 20260901160142 | 68 | 210 | 1.7 | 2.6 | 0.00 | 0.04 | 0.04 | 47 | 1031.2 |
| 20260901155641 | 67 | 165 | 1.7 | 1.7 | 0.00 | 0.04 | 0.04 | 49 | 1031.3 |
| 20260901155137 | 67 | 117 | 1.7 | 4.3 | 0.00 | 0.04 | 0.04 | 50 | 1031.2 |
| 20260901154632 | 68 | 108 | 5.2 | 6.1 | 0.00 | 0.04 | 0.04 | 45 | 1031.3 |
| 20260901154126 | 67 | 147 | 0.9 | 1.7 | 0.00 | 0.04 | 0.04 | 53 | 1031.5 |
| 20260901153622 | 67 | 214 | 0.0 | 0.9 | 0.00 | 0.04 | 0.04 | 48 | 1031.5 |
| 20260901153121 | 65 | 196 | 0.0 | 0.9 | 0.00 | 0.04 | 0.04 | 54 | 1031.3 |
| 20260901152617 | 64 | 152 | 1.7 | 1.7 | 0.00 | 0.04 | 0.04 | 55 | 1031.5 |
| 20260901152115 | 63 | 121 | 3.5 | 5.2 | 0.00 | 0.04 | 0.04 | 52 | 1031.5 |
| 20260901151611 | 62 | 171 | 2.6 | 2.6 | 0.00 | 0.04 | 0.04 | 59 | 1031.5 |
| 20260901151110 | 59 | 216 | 0.9 | 1.7 | 0.00 | 0.04 | 0.04 | 66 | 1031.4 |
| 20260901150609 | 57 | 237 | 0.0 | 0.0 | 0.00 | 0.04 | 0.04 | 82 | 1031.4 |
| 20260901150108 | 54 | 169 | 0.9 | 0.9 | 0.00 | 0.04 | 0.04 | 92 | 1031.2 |
| 20260901145601 | 54 | 203 | 0.0 | 0.9 | 0.00 | 0.04 | 0.04 | 96 | 1031.4 |
| 20260901145100 | 54 | 211 | 0.0 | 0.0 | 0.00 | 0.04 | 0.04 | 97 | 1031.4 |
| 20260901144556 | 53 | 239 | 0.9 | 0.9 | 0.00 | 0.04 | 0.04 | 97 | 1031.2 |
| 20260901144050 | 53 | 204 | 0.0 | 0.0 | 0.00 | 0.04 | 0.04 | 98 | 1031.7 |
| 20260901143541 | 52 | 237 | 0.0 | 0.0 | 0.00 | 0.04 | 0.04 | 99 | 1031.4 |
| 20260901143037 | 52 | 233 | 0.9 | 0.9 | 0.00 | 0.04 | 0.04 | 99 | 1031.4 |
| 20260901142531 | 51 | 216 | 0.0 | 0.0 | 0.00 | 0.04 | 0.04 | 99 | 1031.2 |
| 20260901142026 | 51 | 165 | 0.9 | 0.9 | 0.00 | 0.04 | 0.04 | 99 | 1031.2 |
| 20260901141526 | 51 | 210 | 0.0 | 0.0 | 0.00 | 0.04 | 0.04 | 99 | 1031.2 |
| 20260901141022 | 51 | 224 | 0.0 | 0.0 | 0.00 | 0.04 | 0.04 | 99 | 1031.3 |
| 20260901140520 | 51 | 189 | 0.9 | 0.9 | 0.00 | 0.04 | 0.04 | 99 | 1031.3 |
| 20260901140015 | 51 | 220 | 0.9 | 1.7 | 0.00 | 0.04 | 0.04 | 99 | 1031.3 |
| 20260901135514 | 51 | 207 | 0.0 | 0.0 | 0.00 | 0.04 | 0.04 | 99 | 1031.4 |
| 20260901135010 | 51 | 248 | 0.0 | 0.0 | 0.00 | 0.04 | 0.04 | 99 | 1031.0 |
| 20260901134506 | 50 | 208 | 0.0 | 0.0 | 0.00 | 0.04 | 0.04 | 99 | 1031.0 |
| 20260901134000 | 50 | 240 | 0.0 | 0.0 | 0.00 | 0.04 | 0.04 | 99 | 1031.3 |
| 20260901133459 | 50 | 197 | 0.9 | 0.9 | 0.00 | 0.04 | 0.04 | 99 | 1030.8 |
| 20260901132957 | 50 | 219 | 0.0 | 0.0 | 0.00 | 0.04 | 0.04 | 99 | 1030.9 |
| 20260901132452 | 50 | 219 | 0.0 | 0.0 | 0.00 | 0.04 | 0.04 | 99 | 1031.0 |
| 20260901131951 | 50 | 199 | 0.0 | 0.0 | 0.00 | 0.04 | 0.04 | 99 | 1030.8 |
| 20260901131450 | 50 | 197 | 0.0 | 0.0 | 0.00 | 0.04 | 0.04 | 99 | 1030.7 |
| 20260901130946 | 50 | 216 | 0.0 | 0.0 | 0.00 | 0.04 | 0.04 | 99 | 1030.5 |
| 20260901130441 | 50 | 208 | 0.0 | 0.0 | 0.00 | 0.04 | 0.04 | 99 | 1030.4 |
| 20260901125938 | 50 | 217 | 0.0 | 0.0 | 0.00 | 0.04 | 0.04 | 99 | 1030.7 |
| 20260901125439 | 49 | 215 | 0.0 | 0.0 | 0.00 | 0.04 | 0.04 | 99 | 1030.5 |
| 20260901124933 | 49 | 201 | 0.0 | 0.0 | 0.00 | 0.04 | 0.04 | 99 | 1030.3 |
| 20260901124428 | 49 | 201 | 0.0 | 0.0 | 0.00 | 0.04 | 0.04 | 99 | 1030.3 |
| 20260901123923 | 50 | 184 | 0.0 | 0.0 | 0.00 | 0.04 | 0.04 | 99 | 1029.8 |
| 20260901123418 | 50 | 217 | 0.0 | 0.0 | 0.00 | 0.04 | 0.04 | 99 | 1030.0 |
| 20260901122916 | 50 | 216 | 0.0 | 0.0 | 0.00 | 0.04 | 0.04 | 99 | 1030.0 |
| 20260901122411 | 49 | 188 | 0.0 | 0.0 | 0.00 | 0.04 | 0.04 | 99 | 1029.9 |
| 20260901121910 | 49 | 218 | 0.0 | 0.0 | 0.00 | 0.04 | 0.04 | 99 | 1030.2 |
| 20260901121405 | 50 | 224 | 0.0 | 0.0 | 0.00 | 0.04 | 0.04 | 99 | 1029.9 |
| 20260901120901 | 49 | 216 | 0.0 | 0.0 | 0.00 | 0.04 | 0.04 | 99 | 1029.7 |
| 20260901120400 | 49 | 221 | 0.0 | 0.0 | 0.00 | 0.04 | 0.04 | 99 | 1029.7 |
| 20260901115856 | 49 | 218 | 0.0 | 0.0 | 0.00 | 0.04 | 0.04 | 99 | 1029.9 |
| 20260901115356 | 49 | 188 | 0.0 | 0.0 | 0.00 | 0.04 | 0.04 | 99 | 1029.8 |
| 20260901114854 | 49 | 180 | 0.0 | 0.0 | 0.00 | 0.04 | 0.04 | 99 | 1029.9 |
| 20260901114349 | 49 | 221 | 0.0 | 0.0 | 0.00 | 0.04 | 0.04 | 99 | 1029.9 |
| 20260901113847 | 49 | 161 | 0.0 | 0.0 | 0.00 | 0.04 | 0.04 | 99 | 1030.2 |
| 20260901113346 | 50 | 235 | 0.0 | 0.0 | 0.00 | 0.04 | 0.04 | 99 | 1030.2 |
| 20260901112841 | 50 | 176 | 0.0 | 0.0 | 0.00 | 0.04 | 0.04 | 99 | 1029.8 |
| 20260901112336 | 49 | 205 | 0.0 | 0.0 | 0.00 | 0.04 | 0.04 | 99 | 1030.2 |
| 20260901111831 | 50 | 223 | 0.0 | 0.0 | 0.00 | 0.04 | 0.04 | 99 | 1029.9 |
| 20260901111329 | 49 | 218 | 0.0 | 0.0 | 0.00 | 0.04 | 0.04 | 99 | 1030.0 |
| 20260901110828 | 49 | 203 | 0.0 | 0.0 | 0.00 | 0.04 | 0.04 | 99 | 1030.2 |
| 20260901110324 | 49 | 219 | 0.0 | 0.0 | 0.00 | 0.04 | 0.04 | 99 | 1029.9 |
| 20260901105820 | 50 | 223 | 0.0 | 0.0 | 0.00 | 0.04 | 0.04 | 99 | 1029.9 |
| 20260901105320 | 50 | 204 | 0.0 | 0.0 | 0.00 | 0.04 | 0.04 | 99 | 1029.8 |
| 20260901104817 | 50 | 214 | 0.0 | 0.0 | 0.00 | 0.04 | 0.04 | 99 | 1030.3 |
| 20260901104312 | 50 | 203 | 0.0 | 0.0 | 0.00 | 0.04 | 0.04 | 99 | 1029.9 |
| 20260901103807 | 50 | 183 | 0.0 | 0.0 | 0.00 | 0.04 | 0.04 | 99 | 1030.3 |
| 20260901103306 | 50 | 222 | 0.0 | 0.0 | 0.00 | 0.04 | 0.04 | 99 | 1030.2 |
| 20260901102801 | 50 | 187 | 0.0 | 0.0 | 0.00 | 0.04 | 0.04 | 99 | 1030.3 |
| 20260901102256 | 50 | 237 | 0.0 | 0.0 | 0.00 | 0.04 | 0.04 | 99 | 1030.2 |
| 20260901101752 | 50 | 219 | 0.9 | 0.9 | 0.00 | 0.04 | 0.04 | 99 | 1030.2 |
| 20260901101251 | 50 | 230 | 0.0 | 0.0 | 0.00 | 0.04 | 0.04 | 99 | 1030.4 |
| 20260901100751 | 50 | 226 | 0.0 | 0.0 | 0.00 | 0.04 | 0.04 | 99 | 1030.7 |
| 20260901100246 | 50 | 144 | 1.7 | 1.7 | 0.00 | 0.04 | 0.04 | 99 | 1030.3 |
| 20260901095744 | 50 | 183 | 1.7 | 1.7 | 0.00 | 0.04 | 0.04 | 99 | 1030.5 |
| 20260901095242 | 50 | 201 | 0.0 | 0.0 | 0.00 | 0.04 | 0.04 | 99 | 1030.4 |
| 20260901094737 | 50 | 189 | 0.0 | 0.9 | 0.00 | 0.04 | 0.04 | 99 | 1030.8 |
| 20260901094232 | 50 | 190 | 0.9 | 1.7 | 0.00 | 0.04 | 0.04 | 99 | 1030.8 |
| 20260901093727 | 50 | 186 | 0.0 | 0.0 | 0.00 | 0.04 | 0.04 | 99 | 1030.8 |
| 20260901093225 | 50 | 244 | 0.0 | 0.0 | 0.00 | 0.04 | 0.04 | 99 | 1030.8 |
| 20260901092722 | 51 | 220 | 0.0 | 0.0 | 0.00 | 0.04 | 0.04 | 99 | 1030.7 |
| 20260901092218 | 51 | 214 | 0.0 | 0.0 | 0.00 | 0.04 | 0.04 | 99 | 1030.7 |
| 20260901091713 | 51 | 224 | 0.0 | 0.9 | 0.00 | 0.04 | 0.04 | 99 | 1031.0 |
| 20260901091208 | 51 | 202 | 0.0 | 0.0 | 0.00 | 0.04 | 0.04 | 99 | 1030.8 |
| 20260901090702 | 51 | 219 | 0.0 | 0.0 | 0.00 | 0.04 | 0.04 | 99 | 1030.9 |
| 20260901090158 | 51 | 221 | 0.0 | 0.0 | 0.00 | 0.04 | 0.04 | 99 | 1030.9 |
| 20260901085654 | 51 | 196 | 0.0 | 0.0 | 0.00 | 0.04 | 0.04 | 99 | 1031.0 |
| 20260901085149 | 51 | 219 | 0.0 | 0.0 | 0.00 | 0.04 | 0.04 | 99 | 1030.8 |
| 20260901084645 | 51 | 156 | 0.9 | 1.7 | 0.00 | 0.04 | 0.04 | 99 | 1030.7 |
| 20260901084142 | 51 | 217 | 0.0 | 0.0 | 0.00 | 0.04 | 0.04 | 99 | 1031.2 |
| 20260901083641 | 51 | 221 | 0.0 | 0.0 | 0.00 | 0.04 | 0.04 | 99 | 1031.0 |
| 20260901083140 | 51 | 226 | 0.0 | 0.0 | 0.00 | 0.04 | 0.04 | 99 | 1030.8 |
| 20260901082634 | 51 | 195 | 0.0 | 0.0 | 0.00 | 0.04 | 0.04 | 99 | 1031.2 |
| 20260901082130 | 52 | 213 | 0.0 | 0.0 | 0.00 | 0.04 | 0.04 | 99 | 1031.3 |
| 20260901081625 | 52 | 209 | 0.0 | 0.0 | 0.00 | 0.04 | 0.04 | 99 | 1031.3 |
| 20260901081120 | 52 | 216 | 0.0 | 0.0 | 0.00 | 0.04 | 0.04 | 99 | 1031.4 |
| 20260901080620 | 52 | 196 | 0.9 | 0.9 | 0.00 | 0.04 | 0.04 | 99 | 1031.3 |
| 20260901080118 | 52 | 219 | 0.0 | 0.0 | 0.00 | 0.04 | 0.04 | 99 | 1031.7 |
| 20260901075614 | 52 | 222 | 0.0 | 0.0 | 0.00 | 0.04 | 0.04 | 99 | 1031.4 |
| 20260901075114 | 52 | 206 | 0.0 | 0.0 | 0.00 | 0.04 | 0.04 | 99 | 1031.7 |
| 20260901074614 | 52 | 221 | 0.0 | 0.9 | 0.00 | 0.04 | 0.04 | 99 | 1031.8 |
| 20260901074114 | 52 | 206 | 0.9 | 0.9 | 0.00 | 0.04 | 0.04 | 99 | 1031.9 |
| 20260901073611 | 52 | 201 | 0.0 | 0.0 | 0.00 | 0.04 | 0.04 | 99 | 1031.8 |
| 20260901073105 | 52 | 215 | 0.0 | 0.0 | 0.00 | 0.04 | 0.04 | 99 | 1031.8 |
| 20260901072601 | 52 | 219 | 0.0 | 0.0 | 0.00 | 0.04 | 0.04 | 99 | 1031.8 |
| 20260901072055 | 52 | 237 | 0.9 | 0.9 | 0.00 | 0.04 | 0.04 | 99 | 1032.1 |
| 20260901071555 | 52 | 183 | 1.7 | 1.7 | 0.00 | 0.04 | 0.04 | 99 | 1031.5 |
| 20260901071055 | 52 | 201 | 0.0 | 0.0 | 0.00 | 0.04 | 0.04 | 99 | 1031.9 |
| 20260901070549 | 52 | 104 | 0.9 | 1.7 | 0.00 | 0.04 | 0.04 | 99 | 1031.9 |
| 20260901070044 | 52 | 227 | 0.0 | 0.0 | 0.00 | 0.04 | 0.04 | 99 | 1031.4 |
| 20260901065538 | 52 | 211 | 0.0 | 0.0 | 0.00 | 0.04 | 0.04 | 99 | 1031.9 |
| 20260901065033 | 52 | 222 | 0.0 | 0.0 | 0.00 | 0.04 | 0.04 | 99 | 1032.1 |
| 20260901064531 | 52 | 188 | 0.0 | 0.0 | 0.00 | 0.04 | 0.04 | 99 | 1032.2 |
| 20260901064027 | 52 | 224 | 0.0 | 0.0 | 0.07 | 0.04 | 0.04 | 99 | 1032.2 |
| 20260901063524 | 52 | 222 | 0.0 | 0.0 | 0.19 | 0.04 | 0.04 | 99 | 1032.1 |
| 20260901063019 | 52 | 260 | 0.9 | 1.7 | 0.17 | 0.03 | 0.03 | 99 | 1032.6 |
| 20260901062515 | 52 | 232 | 0.9 | 1.7 | 0.05 | 0.01 | 0.01 | 99 | 1032.6 |
| 20260901062011 | 52 | 228 | 0.9 | 0.9 | 0.00 | 0.00 | 0.00 | 99 | 1032.1 |
| 20260901061507 | 52 | 224 | 0.0 | 0.0 | 0.00 | 0.00 | 0.00 | 99 | 1031.9 |
| 20260901061006 | 52 | 215 | 0.0 | 0.0 | 0.00 | 0.00 | 0.00 | 99 | 1031.8 |
| 20260901060502 | 52 | 215 | 0.0 | 0.0 | 0.00 | 0.00 | 0.00 | 99 | 1032.1 |
| 20260901060002 | 52 | 221 | 0.0 | 0.0 | 0.00 | 0.07 | 0.07 | 99 | 1031.9 |
| 20260901055458 | 52 | 212 | 1.7 | 1.7 | 0.00 | 0.07 | 0.07 | 99 | 1032.1 |
| 20260901054954 | 52 | 235 | 0.0 | 0.0 | 0.07 | 0.07 | 0.07 | 99 | 1032.1 |
| 20260901054451 | 52 | 188 | 0.0 | 0.0 | 0.07 | 0.07 | 0.07 | 99 | 1032.2 |
| 20260901053947 | 52 | 170 | 1.7 | 1.7 | 0.00 | 0.06 | 0.06 | 99 | 1032.2 |
| 20260901053442 | 52 | 204 | 0.0 | 0.0 | 0.00 | 0.06 | 0.06 | 99 | 1032.6 |
| 20260901052938 | 51 | 218 | 0.0 | 0.0 | 0.00 | 0.06 | 0.06 | 99 | 1031.9 |
| 20260901052433 | 51 | 188 | 0.0 | 0.0 | 0.00 | 0.06 | 0.06 | 99 | 1031.9 |
| 20260901051931 | 51 | 220 | 0.0 | 0.0 | 0.00 | 0.06 | 0.06 | 99 | 1031.9 |
| 20260901051427 | 52 | 186 | 0.9 | 0.9 | 0.00 | 0.06 | 0.06 | 99 | 1031.7 |
| 20260901050921 | 52 | 213 | 0.0 | 0.0 | 0.00 | 0.06 | 0.06 | 99 | 1032.2 |
| 20260901050418 | 52 | 214 | 0.0 | 0.0 | 0.00 | 0.06 | 0.06 | 99 | 1031.9 |
| 20260901045917 | 52 | 205 | 0.0 | 0.0 | 0.00 | 0.06 | 0.06 | 99 | 1032.1 |
| 20260901045412 | 52 | 209 | 0.0 | 0.0 | 0.00 | 0.06 | 0.06 | 99 | 1032.6 |
| 20260901044907 | 52 | 201 | 0.0 | 0.9 | 0.00 | 0.06 | 0.06 | 99 | 1032.2 |
| 20260901044402 | 52 | 226 | 0.0 | 0.0 | 0.00 | 0.06 | 0.06 | 99 | 1032.2 |